Date,TemperatureHighF,TemperatureAvgF,TemperatureLowF,DewpointHighF,DewpointAvgF,DewpointLowF,HumidityHigh,HumidityAvg,HumidityLow,PressureMaxIn,PressureMinIn,WindSpeedMaxMPH,WindSpeedAvgMPH,GustSpeedMaxMPH,PrecipitationSumIn
2013-9-1,93.4,79.3,71.5,28.8,18.1,12.1,1,1,1,29.63,29.52,0,0,0,0.00
2013-9-2,94.0,80.2,71.8,29.2,18.8,12.4,1,1,1,29.64,29.55,0,0,0,0.00
2013-9-3,93.6,81.4,71.5,28.9,19.7,12.1,1,1,1,29.65,29.54,0,0,0,0.00
2013-9-4,91.6,77.8,72.4,27.5,17.0,12.8,1,1,1,29.72,29.61,0,0,0,0.00
2013-9-5,92.5,79.0,71.1,28.1,17.8,11.8,1,1,1,29.73,29.64,0,0,0,0.00
2013-9-6,94.5,76.6,71.6,29.6,16.1,12.2,1,1,1,29.69,29.61,0,0,0,0.00
2013-9-7,91.6,79.9,72.4,27.5,18.5,12.8,1,1,1,29.65,29.56,0,0,0,0.00
2013-9-8,93.4,80.4,70.4,28.8,18.9,11.3,1,1,1,29.61,29.52,0,0,0,0.00
2013-9-9,93.2,80.6,69.3,28.6,19.1,10.5,1,1,1,29.68,29.57,0,0,0,0.00
2013-9-10,91.8,79.8,70.7,27.6,18.5,11.5,1,1,1,29.74,29.64,0,0,0,0.00
2013-9-11,93.8,80.3,72.4,29.1,18.8,12.8,1,1,1,29.72,29.64,0,0,0,0.00
2013-9-12,89.3,78.0,71.1,25.7,17.1,11.8,1,1,1,29.66,29.53,0,0,0,0.00
2013-9-13,93.4,79.7,70.9,28.8,18.4,11.7,1,1,1,29.54,29.42,0,0,0,0.00
2013-9-14,95.0,81.1,73.1,30.1,19.5,13.4,1,1,1,29.62,29.46,0,0,0,0.00
2013-9-15,91.3,79.6,74.0,27.2,18.3,14.0,1,1,1,29.71,29.61,0,0,0,0.00
2013-9-16,91.6,80.5,71.5,27.5,19.0,12.1,1,1,1,29.72,29.62,0,0,0,0.00
2013-9-17,91.1,79.1,71.1,27.1,17.9,11.8,1,1,1,29.71,29.60,0,0,0,0.00
2013-9-18,88.2,78.5,72.7,24.9,17.5,13.2,1,1,1,29.68,29.61,0,0,0,0.00
2013-9-19,90.5,77.0,70.6,26.6,16.3,11.3,1,1,1,29.69,29.62,0,0,0,0.00
2013-9-20,87.8,76.3,67.1,24.7,15.8,8.8,1,1,1,29.67,29.55,0,0,0,0.00
2013-9-21,90.7,78.3,66.6,26.8,17.3,8.4,1,1,1,29.59,29.40,0,0,0,0.00
2013-9-22,92.5,77.5,70.7,28.1,16.7,11.5,1,1,1,29.49,29.38,0,0,0,0.00
2013-9-23,81.0,75.8,73.1,19.4,15.4,13.4,1,1,1,29.60,29.48,0,0,0,0.00
2013-9-24,82.1,76.7,73.4,20.3,16.1,13.7,1,1,1,29.59,29.47,0,0,0,0.00
2013-9-25,82.1,75.8,72.9,20.3,15.5,13.2,1,1,1,29.48,29.41,0,0,0,0.00
2013-9-26,91.8,80.5,73.1,27.6,19.0,13.4,1,1,1,29.51,29.40,0,0,0,0.00
2013-9-27,78.7,72.8,68.6,17.6,13.1,9.9,1,1,1,29.59,29.48,0,0,0,0.00
2013-9-28,81.0,73.6,69.8,19.4,13.7,10.8,1,1,1,29.66,29.55,0,0,0,0.00
2013-9-29,88.6,75.2,67.5,25.2,15.0,9.1,1,1,1,29.63,29.54,0,0,0,0.00
2013-9-30,90.7,76.3,66.2,26.8,15.8,8.1,1,1,1,29.65,29.55,0,0,0,0.00